Weather History for KFLG - August, 2013

Change the Weather History Date:

Wednesday, August 21, 2013

  Actual Average Record
Temperature  
Mean Temperature 65 °F 64 °F  
Max Temperature 73 °F 78 °F 90 °F (1991)
Min Temperature 57 °F 49 °F 33 °F (1979)
Degree Days  
Heating Degree Days 0 2  
Month to date heating degree days 27 29  
Since 1 July heating degree days 36 61  
Cooling Degree Days 0 1  
Month to date cooling degree days 18 28  
Year to date cooling degree days 143 109  
Growing Degree Days 15 (Base 50)    
Moisture  
Dew Point 52 °F    
Average Humidity 67    
Maximum Humidity 84    
Minimum Humidity 49    
Precipitation  
Precipitation 0.21 in 0.09 in 1.88 in (1932)
Month to date precipitation 1.15 2.18  
Year to date precipitation 13.98 13.26  
Snow  
Snow 0.00 in 0.00 in 0.00 in (2002)
Month to date snowfall 0.0 0.0  
Since 1 July snowfall 0.0 0.0  
Snow Depth 0.00 in    
Sea Level Pressure  
Sea Level Pressure 30.05 in    
Wind  
Wind Speed 6 mph (WNW)    
Max Wind Speed 18 mph    
Max Gust Speed 24 mph    
Visibility 10 miles    
Events Rain , Thunderstorm    
T = Trace of Precipitation, MM = Missing Value Source: NWS Daily Summary

Daily Weather History Graph

Daily Weather History Graph

Search for Another Location

Airport or City:

Trip Planner

Search our weather history database for the weather conditions in past years. The results will help you decide how hot, cold, wet, or windy it might be!

Date:

Astronomy

Aug. 21, 2013 Rise Set
Actual Time 5:51 AM MST 7:07 PM MST
Civil Twilight 5:24 AM MST 7:33 PM MST
Nautical Twilight 4:53 AM MST 8:05 PM MST
Astronomical Twilight 4:20 AM MST 8:38 PM MST
Moon 7:23 PM MST (8/21) 6:31 AM MST (8/21)
Length of Visible Light 14h 09m
Length of Day
13h 16m
Full, 99% of the Moon is Illuminated
Aug 21
Full
Aug 28
Last Quarter
Sep 5
New
Sep 12
First Quarter
Sep 19
Full

Hourly Weather History & Observations

Time (MST) Temp. Dew Point Humidity Pressure Visibility Wind Dir Wind Speed Gust Speed Precip Events Conditions
12:57 AM 66.0 °F 48.0 °F 52% 29.95 in 10.0 mi SW 11.5 mph 19.6 mph N/A   Clear
1:57 AM 64.0 °F 51.1 °F 63% 29.95 in 10.0 mi SW 12.7 mph - N/A   Clear
2:57 AM 63.0 °F 51.1 °F 65% 29.96 in 10.0 mi Variable 3.5 mph - N/A   Clear
3:57 AM 62.1 °F 51.1 °F 67% 29.96 in 10.0 mi North 3.5 mph - N/A   Scattered Clouds
5:57 AM 59.0 °F 51.1 °F 75% 29.98 in 10.0 mi Calm Calm - N/A   Clear
6:57 AM 62.1 °F 51.1 °F 67% 30.01 in 10.0 mi Calm Calm - N/A   Partly Cloudy
7:57 AM 66.0 °F 51.1 °F 59% 30.02 in 10.0 mi WSW 4.6 mph - N/A   Partly Cloudy
8:57 AM 70.0 °F 52.0 °F 53% 30.02 in 10.0 mi SW 9.2 mph - N/A   Partly Cloudy
9:57 AM 69.1 °F 53.1 °F 57% 30.05 in 10.0 mi SSW 12.7 mph - N/A   Scattered Clouds
10:28 AM 66.2 °F 53.6 °F 64% 30.38 in 7.0 mi SSE 6.9 mph - 0.01 in Rain , Thunderstorm Light Thunderstorms and Rain
10:57 AM 61.0 °F 55.9 °F 83% 30.11 in 7.0 mi SW 10.4 mph - 0.20 in Rain , Thunderstorm Light Thunderstorms and Rain
11:57 AM 62.1 °F 57.0 °F 84% 30.07 in 10.0 mi Calm Calm - 0.01 in Rain , Thunderstorm Light Thunderstorms and Rain
12:06 PM 62.6 °F 57.2 °F 82% 30.37 in 10.0 mi North 5.8 mph - 0.00 in   Overcast
12:57 PM 66.9 °F 55.9 °F 68% 30.04 in 10.0 mi Variable 3.5 mph - 0.00 in   Partly Cloudy
1:57 PM 71.1 °F 55.0 °F 57% 30.01 in 10.0 mi Variable 5.8 mph - N/A   Scattered Clouds
2:57 PM 71.1 °F 52.0 °F 51% 30.00 in 10.0 mi WNW 9.2 mph 16.1 mph N/A   Clear
3:57 PM 70.0 °F 51.1 °F 51% 29.99 in 10.0 mi Variable 3.5 mph - N/A   Mostly Cloudy
4:57 PM 68.0 °F 48.9 °F 50% 30.00 in 10.0 mi NW 10.4 mph 17.3 mph N/A   Mostly Cloudy
5:57 PM 68.0 °F 48.0 °F 49% 29.99 in 10.0 mi NNW 3.5 mph - N/A   Overcast
6:57 PM 64.0 °F 54.0 °F 70% 30.02 in 10.0 mi Calm Calm - N/A   Partly Cloudy
7:57 PM 62.1 °F 50.0 °F 65% 30.06 in 10.0 mi East 9.2 mph 18.4 mph 0.00 in Rain Light Rain
8:57 PM 61.0 °F 52.0 °F 72% 30.07 in 10.0 mi NNE 4.6 mph - 0.00 in   Overcast
9:57 PM 60.1 °F 52.0 °F 75% 30.07 in 10.0 mi East 3.5 mph - N/A   Mostly Cloudy
10:57 PM 60.1 °F 53.1 °F 78% 30.10 in 10.0 mi NNE 4.6 mph - N/A   Overcast
11:57 PM 60.1 °F 51.1 °F 72% 30.08 in 10.0 mi ENE 3.5 mph - N/A   Mostly Cloudy